Time,TemperatureF,DewpointF,PressureIn,WindDirection,WindDirectionDegrees,WindSpeedMPH,WindSpeedGustMPH,Humidity,HourlyPrecipIn,Conditions,Clouds,dailyrainin,SoftwareType,DateUTC
2013-01-26 00:03:00,28.0,27.0,30.15,WSW,246,0.0,0.0,94,0.00,,,0.00,,2013-01-26 05:03:00,
2013-01-26 00:12:00,28.0,27.0,30.15,WSW,246,0.0,0.0,94,0.00,,,0.00,,2013-01-26 05:12:00,
2013-01-26 00:23:00,28.0,27.0,30.14,WSW,246,0.0,0.0,94,0.00,,,0.00,,2013-01-26 05:23:00,
2013-01-26 00:33:00,28.0,27.0,30.14,WSW,246,0.0,0.0,94,0.00,,,0.00,,2013-01-26 05:33:00,
2013-01-26 00:42:00,28.0,27.0,30.14,WSW,246,0.0,0.0,94,0.00,,,0.00,,2013-01-26 05:42:00,
2013-01-26 00:53:00,28.0,27.0,30.14,WSW,246,0.0,0.0,94,0.00,,,0.00,,2013-01-26 05:53:00,
2013-01-26 01:03:00,29.0,27.0,30.14,WSW,246,0.0,0.0,94,0.00,,,0.00,,2013-01-26 06:03:00,
2013-01-26 01:12:00,29.0,27.0,30.14,WSW,246,0.0,0.0,94,0.00,,,0.00,,2013-01-26 06:12:00,
2013-01-26 01:21:00,29.0,28.0,30.14,WSW,246,0.0,0.0,95,0.00,,,0.00,,2013-01-26 06:21:00,
2013-01-26 01:32:00,30.0,29.0,30.14,WSW,247,0.0,3.0,96,0.00,,,0.00,,2013-01-26 06:32:00,
2013-01-26 01:42:00,30.0,29.0,30.14,WSW,247,0.0,3.0,96,0.00,,,0.00,,2013-01-26 06:42:00,
2013-01-26 01:52:00,31.0,30.0,30.14,WNW,286,0.0,2.0,96,0.00,,,0.00,,2013-01-26 06:52:00,
2013-01-26 02:02:00,31.0,30.0,30.14,WNW,288,0.0,2.0,96,0.00,,,0.00,,2013-01-26 07:02:00,
2013-01-26 02:12:00,31.0,30.0,30.14,WNW,288,0.0,2.0,96,0.00,,,0.00,,2013-01-26 07:12:00,
2013-01-26 02:22:00,31.0,30.0,30.14,WNW,288,0.0,2.0,96,0.00,,,0.00,,2013-01-26 07:22:00,
2013-01-26 02:33:00,32.0,31.0,30.14,WNW,298,0.0,3.0,96,0.00,,,0.00,,2013-01-26 07:33:00,
2013-01-26 02:42:00,32.0,31.0,30.14,WNW,298,0.0,3.0,96,0.00,,,0.00,,2013-01-26 07:42:00,
2013-01-26 02:52:00,32.0,31.0,30.14,WNW,298,0.0,3.0,96,0.00,,,0.00,,2013-01-26 07:52:00,
2013-01-26 03:02:00,32.0,31.0,30.14,WNW,298,0.0,2.0,97,0.00,,,0.00,,2013-01-26 08:02:00,
2013-01-26 03:11:00,32.0,31.0,30.14,WNW,298,0.0,2.0,97,0.00,,,0.00,,2013-01-26 08:11:00,
2013-01-26 03:22:00,32.0,31.0,30.13,WNW,297,0.0,2.0,97,0.00,,,0.00,,2013-01-26 08:22:00,
2013-01-26 03:32:00,32.0,31.0,30.13,WNW,297,0.0,2.0,97,0.00,,,0.00,,2013-01-26 08:32:00,
2013-01-26 03:42:00,32.0,31.0,30.13,WNW,297,0.0,2.0,97,0.00,,,0.00,,2013-01-26 08:42:00,
2013-01-26 03:54:00,31.0,30.0,30.13,WNW,297,0.0,1.0,97,0.00,,,0.00,,2013-01-26 08:54:00,
2013-01-26 04:02:00,31.0,30.0,30.14,WNW,297,0.0,1.0,97,0.00,,,0.00,,2013-01-26 09:02:00,
2013-01-26 04:11:00,31.0,30.0,30.14,WNW,297,0.0,1.0,97,0.00,,,0.00,,2013-01-26 09:11:00,
2013-01-26 04:22:00,31.0,30.0,30.14,WNW,297,0.0,0.0,97,0.00,,,0.00,,2013-01-26 09:22:00,
2013-01-26 04:32:00,30.0,29.0,30.14,WNW,297,0.0,2.0,97,0.00,,,0.00,,2013-01-26 09:32:00,
2013-01-26 04:42:00,30.0,29.0,30.14,WNW,297,0.0,2.0,97,0.00,,,0.00,,2013-01-26 09:42:00,
2013-01-26 04:52:00,30.0,29.0,30.14,WNW,298,0.0,1.0,97,0.00,,,0.00,,2013-01-26 09:52:00,
2013-01-26 05:01:00,30.0,29.0,30.14,WNW,298,0.0,2.0,97,0.00,,,0.00,,2013-01-26 10:01:00,
2013-01-26 05:12:00,30.0,29.0,30.14,WNW,298,0.0,2.0,97,0.00,,,0.00,,2013-01-26 10:12:00,
2013-01-26 05:21:00,29.0,28.0,30.14,WNW,298,0.0,0.0,97,0.00,,,0.00,,2013-01-26 10:21:00,
2013-01-26 05:32:00,29.0,28.0,30.14,WNW,298,0.0,0.0,97,0.00,,,0.00,,2013-01-26 10:32:00,
2013-01-26 05:42:00,29.0,28.0,30.14,WNW,298,0.0,0.0,97,0.00,,,0.00,,2013-01-26 10:42:00,
2013-01-26 05:52:00,29.0,28.0,30.14,WNW,298,0.0,0.0,97,0.00,,,0.00,,2013-01-26 10:52:00,
2013-01-26 06:01:00,29.0,28.0,30.14,WNW,298,0.0,0.0,97,0.00,,,0.00,,2013-01-26 11:01:00,
2013-01-26 06:12:00,29.0,28.0,30.14,WNW,298,0.0,0.0,97,0.00,,,0.00,,2013-01-26 11:12:00,
2013-01-26 06:22:00,29.0,28.0,30.15,WNW,298,0.0,0.0,97,0.00,,,0.00,,2013-01-26 11:22:00,
2013-01-26 06:32:00,28.0,27.0,30.15,WNW,298,0.0,0.0,97,0.00,,,0.00,,2013-01-26 11:32:00,
2013-01-26 06:42:00,28.0,27.0,30.15,WNW,298,0.0,0.0,97,0.00,,,0.00,,2013-01-26 11:42:00,
2013-01-26 06:52:00,28.0,27.0,30.15,WNW,298,0.0,0.0,97,0.00,,,0.00,,2013-01-26 11:52:00,
2013-01-26 07:02:00,28.0,27.0,30.16,WNW,298,0.0,0.0,97,0.00,,,0.00,,2013-01-26 12:02:00,
2013-01-26 07:12:00,28.0,27.0,30.16,WNW,298,0.0,0.0,97,0.00,,,0.00,,2013-01-26 12:12:00,
2013-01-26 07:23:00,28.0,27.0,30.16,WNW,298,0.0,0.0,97,0.00,,,0.00,,2013-01-26 12:23:00,
2013-01-26 07:33:00,28.0,27.0,30.16,WNW,298,0.0,0.0,97,0.00,,,0.00,,2013-01-26 12:33:00,
2013-01-26 07:42:00,28.0,27.0,30.16,WNW,298,0.0,0.0,97,0.00,,,0.00,,2013-01-26 12:42:00,
2013-01-26 07:53:00,28.0,27.0,30.18,WNW,298,0.0,0.0,97,0.00,,,0.00,,2013-01-26 12:53:00,
2013-01-26 08:03:00,28.0,27.0,30.18,WNW,298,0.0,0.0,97,0.00,,,0.00,,2013-01-26 13:03:00,
2013-01-26 08:12:00,28.0,27.0,30.18,WNW,298,0.0,0.0,97,0.00,,,0.00,,2013-01-26 13:12:00,
2013-01-26 08:22:00,28.0,27.0,30.18,WNW,298,0.0,0.0,97,0.00,,,0.00,,2013-01-26 13:22:00,
2013-01-26 08:33:00,29.0,28.0,30.20,WNW,298,0.0,0.0,97,0.00,,,0.00,,2013-01-26 13:33:00,
2013-01-26 08:42:00,29.0,28.0,30.20,WNW,298,0.0,0.0,97,0.00,,,0.00,,2013-01-26 13:42:00,
2013-01-26 08:53:00,30.0,29.0,30.20,WNW,298,0.0,0.0,97,0.00,,,0.00,,2013-01-26 13:53:00,
2013-01-26 09:03:00,30.0,29.0,30.20,WNW,298,0.0,0.0,97,0.00,,,0.00,,2013-01-26 14:03:00,
2013-01-26 09:12:00,30.0,29.0,30.20,WNW,298,0.0,0.0,97,0.00,,,0.00,,2013-01-26 14:12:00,
2013-01-26 09:22:00,30.0,29.0,30.20,WNW,298,0.0,0.0,97,0.00,,,0.00,,2013-01-26 14:22:00,
2013-01-26 09:32:00,30.0,29.0,30.20,WNW,298,0.0,0.0,97,0.00,,,0.00,,2013-01-26 14:32:00,
2013-01-26 09:43:00,30.0,29.0,30.20,WNW,298,0.0,0.0,97,0.00,,,0.00,,2013-01-26 14:43:00,
2013-01-26 09:53:00,31.0,30.0,30.22,WNW,298,0.0,0.0,97,0.00,,,0.00,,2013-01-26 14:53:00,
2013-01-26 10:03:00,32.0,31.0,30.23,WNW,298,0.0,0.0,97,0.00,,,0.00,,2013-01-26 15:03:00,
2013-01-26 10:12:00,32.0,31.0,30.23,WNW,298,0.0,0.0,97,0.00,,,0.00,,2013-01-26 15:12:00,
2013-01-26 10:22:00,33.0,32.0,30.24,WNW,292,0.0,3.0,98,0.00,,,0.00,,2013-01-26 15:22:00,
2013-01-26 10:32:00,33.0,32.0,30.25,WNW,292,0.0,2.0,97,0.00,,,0.00,,2013-01-26 15:32:00,
2013-01-26 10:43:00,33.0,32.0,30.25,WNW,292,0.0,2.0,97,0.00,,,0.00,,2013-01-26 15:43:00,
2013-01-26 10:53:00,35.0,34.0,30.25,WNW,292,0.0,2.0,97,0.00,,,0.00,,2013-01-26 15:53:00,
2013-01-26 11:02:00,37.0,36.0,30.25,NNE,24,1.0,3.0,95,0.00,,,0.00,,2013-01-26 16:02:00,
2013-01-26 11:12:00,37.0,36.0,30.25,NNE,24,1.0,3.0,95,0.00,,,0.00,,2013-01-26 16:12:00,
2013-01-26 11:22:00,39.0,37.0,30.25,NNE,24,0.0,3.0,91,0.00,,,0.00,,2013-01-26 16:22:00,
2013-01-26 11:33:00,41.0,38.0,30.26,NNE,24,0.0,1.0,88,0.01,,,0.01,,2013-01-26 16:33:00,
2013-01-26 11:42:00,41.0,38.0,30.26,NNE,24,0.0,1.0,88,0.01,,,0.01,,2013-01-26 16:42:00,
2013-01-26 11:53:00,42.0,37.0,30.25,SE,142,1.0,3.0,83,0.02,,,0.02,,2013-01-26 16:53:00,
2013-01-26 12:03:00,42.0,37.0,30.26,SW,223,0.0,3.0,83,0.02,,,0.02,,2013-01-26 17:03:00,
2013-01-26 12:13:00,42.0,37.0,30.26,SW,223,0.0,3.0,83,0.02,,,0.02,,2013-01-26 17:13:00,
2013-01-26 12:23:00,44.0,39.0,30.26,SW,215,1.0,3.0,81,0.03,,,0.03,,2013-01-26 17:23:00,
2013-01-26 12:33:00,44.0,39.0,30.24,SW,215,0.0,2.0,81,0.03,,,0.04,,2013-01-26 17:33:00,
2013-01-26 12:42:00,44.0,39.0,30.24,SW,215,0.0,2.0,81,0.03,,,0.04,,2013-01-26 17:42:00,
2013-01-26 12:53:00,45.0,39.0,30.24,SW,215,0.0,2.0,79,0.02,,,0.04,,2013-01-26 17:53:00,
2013-01-26 13:03:00,45.0,38.0,30.24,SSW,213,1.0,2.0,75,0.03,,,0.05,,2013-01-26 18:03:00,
2013-01-26 13:12:00,45.0,38.0,30.24,SSW,213,1.0,2.0,75,0.03,,,0.05,,2013-01-26 18:12:00,
2013-01-26 13:22:00,46.0,38.0,30.25,NE,56,1.0,3.0,74,0.03,,,0.06,,2013-01-26 18:22:00,
2013-01-26 13:33:00,48.0,38.0,30.24,North,360,0.0,3.0,67,0.02,,,0.06,,2013-01-26 18:33:00,
2013-01-26 13:42:00,48.0,38.0,30.24,North,360,0.0,3.0,67,0.02,,,0.06,,2013-01-26 18:42:00,
2013-01-26 13:53:00,48.0,38.0,30.24,North,351,0.0,2.0,68,0.03,,,0.07,,2013-01-26 18:53:00,
2013-01-26 14:03:00,49.0,37.0,30.23,NNW,346,0.0,3.0,64,0.02,,,0.07,,2013-01-26 19:03:00,
2013-01-26 14:12:00,49.0,37.0,30.23,NNW,346,0.0,3.0,64,0.02,,,0.07,,2013-01-26 19:12:00,
2013-01-26 14:22:00,50.0,37.0,30.22,ENE,68,1.0,3.0,61,0.01,,,0.07,,2013-01-26 19:22:00,
2013-01-26 14:33:00,51.0,36.0,30.22,West,270,2.0,5.0,56,0.02,,,0.08,,2013-01-26 19:33:00,
2013-01-26 14:42:00,51.0,36.0,30.22,West,270,2.0,5.0,56,0.02,,,0.08,,2013-01-26 19:42:00,
2013-01-26 14:53:00,51.0,34.0,30.22,West,278,1.0,5.0,51,0.01,,,0.08,,2013-01-26 19:53:00,
2013-01-26 15:02:00,51.0,34.0,30.22,WSW,240,2.0,4.0,51,0.01,,,0.08,,2013-01-26 20:02:00,
2013-01-26 15:11:00,51.0,34.0,30.22,WSW,240,2.0,4.0,51,0.01,,,0.08,,2013-01-26 20:11:00,
2013-01-26 15:22:00,51.0,33.0,30.22,South,183,1.0,4.0,50,0.01,,,0.08,,2013-01-26 20:22:00,
2013-01-26 15:32:00,52.0,35.0,30.22,SW,215,1.0,5.0,52,0.00,,,0.08,,2013-01-26 20:32:00,
2013-01-26 15:42:00,52.0,35.0,30.22,SW,215,1.0,5.0,52,0.00,,,0.08,,2013-01-26 20:42:00,
2013-01-26 15:52:00,52.0,35.0,30.22,SW,215,1.0,5.0,52,0.00,,,0.08,,2013-01-26 20:52:00,
2013-01-26 16:02:00,52.0,33.0,30.22,SSW,209,0.0,3.0,48,0.00,,,0.08,,2013-01-26 21:02:00,
2013-01-26 16:12:00,52.0,33.0,30.22,SSW,209,0.0,3.0,48,0.00,,,0.08,,2013-01-26 21:12:00,
2013-01-26 16:23:00,52.0,33.0,30.22,SSW,196,0.0,3.0,49,0.00,,,0.08,,2013-01-26 21:23:00,
2013-01-26 16:32:00,53.0,33.0,30.22,WSW,245,1.0,3.0,47,0.00,,,0.08,,2013-01-26 21:32:00,
2013-01-26 16:42:00,53.0,33.0,30.22,WSW,245,1.0,3.0,47,0.00,,,0.08,,2013-01-26 21:42:00,
2013-01-26 16:52:00,52.0,32.0,30.22,NNE,13,0.0,3.0,46,0.00,,,0.08,,2013-01-26 21:52:00,
2013-01-26 17:02:00,52.0,32.0,30.22,NNE,13,0.0,3.0,46,0.00,,,0.08,,2013-01-26 22:02:00,
2013-01-26 17:12:00,52.0,32.0,30.22,NNE,13,0.0,3.0,46,0.00,,,0.08,,2013-01-26 22:12:00,
2013-01-26 17:22:00,52.0,33.0,30.23,ESE,114,2.0,3.0,49,0.00,,,0.08,,2013-01-26 22:22:00,
2013-01-26 17:32:00,51.0,34.0,30.23,ESE,114,0.0,2.0,51,0.00,,,0.08,,2013-01-26 22:32:00,
2013-01-26 17:42:00,51.0,34.0,30.23,ESE,114,0.0,2.0,51,0.00,,,0.08,,2013-01-26 22:42:00,
2013-01-26 17:52:00,49.0,34.0,30.24,ESE,114,0.0,0.0,56,0.00,,,0.08,,2013-01-26 22:52:00,
2013-01-26 18:02:00,47.0,34.0,30.24,ESE,114,0.0,0.0,60,0.00,,,0.08,,2013-01-26 23:02:00,
2013-01-26 18:12:00,47.0,34.0,30.24,ESE,114,0.0,0.0,60,0.00,,,0.08,,2013-01-26 23:12:00,
2013-01-26 18:22:00,46.0,34.0,30.24,ESE,114,0.0,0.0,63,0.00,,,0.08,,2013-01-26 23:22:00,
2013-01-26 18:32:00,44.0,34.0,30.24,ESE,114,0.0,0.0,67,0.00,,,0.08,,2013-01-26 23:32:00,
2013-01-26 18:42:00,44.0,34.0,30.24,ESE,114,0.0,0.0,67,0.00,,,0.08,,2013-01-26 23:42:00,
2013-01-26 18:52:00,43.0,34.0,30.25,ESE,114,0.0,0.0,70,0.00,,,0.08,,2013-01-26 23:52:00,
2013-01-26 19:02:00,41.0,34.0,30.26,ESE,114,0.0,0.0,75,0.00,,,0.08,,2013-01-27 00:02:00,
2013-01-26 19:12:00,41.0,34.0,30.26,ESE,114,0.0,0.0,75,0.00,,,0.08,,2013-01-27 00:12:00,
2013-01-26 19:22:00,40.0,33.0,30.26,ESE,114,0.0,0.0,75,0.00,,,0.08,,2013-01-27 00:22:00,
2013-01-26 19:32:00,40.0,34.0,30.27,ESE,114,0.0,0.0,78,0.00,,,0.08,,2013-01-27 00:32:00,
2013-01-26 19:42:00,40.0,34.0,30.27,ESE,114,0.0,0.0,78,0.00,,,0.08,,2013-01-27 00:42:00,
2013-01-26 19:52:00,39.0,33.0,30.27,ESE,114,0.0,1.0,78,0.00,,,0.08,,2013-01-27 00:52:00,
2013-01-26 20:01:00,39.0,33.0,30.27,ESE,114,0.0,1.0,78,0.00,,,0.08,,2013-01-27 01:01:00,
2013-01-26 20:11:00,39.0,33.0,30.27,ESE,114,0.0,1.0,78,0.00,,,0.08,,2013-01-27 01:11:00,
2013-01-26 20:22:00,39.0,33.0,30.27,ESE,114,0.0,0.0,78,0.00,,,0.08,,2013-01-27 01:22:00,
2013-01-26 20:32:00,38.0,32.0,30.28,ESE,114,0.0,0.0,79,0.00,,,0.08,,2013-01-27 01:32:00,
2013-01-26 20:42:00,38.0,32.0,30.28,ESE,114,0.0,0.0,79,0.00,,,0.08,,2013-01-27 01:42:00,
2013-01-26 20:52:00,37.0,32.0,30.28,ESE,114,0.0,2.0,82,0.00,,,0.08,,2013-01-27 01:52:00,
2013-01-26 21:01:00,37.0,32.0,30.28,ESE,114,0.0,1.0,82,0.00,,,0.08,,2013-01-27 02:01:00,
2013-01-26 21:12:00,37.0,32.0,30.28,ESE,114,0.0,1.0,82,0.00,,,0.08,,2013-01-27 02:12:00,
2013-01-26 21:22:00,37.0,33.0,30.29,ESE,114,0.0,0.0,84,0.00,,,0.08,,2013-01-27 02:22:00,
2013-01-26 21:32:00,36.0,32.0,30.29,ESE,114,0.0,0.0,84,0.00,,,0.08,,2013-01-27 02:32:00,
2013-01-26 21:42:00,36.0,32.0,30.29,ESE,114,0.0,0.0,84,0.00,,,0.08,,2013-01-27 02:42:00,
2013-01-26 21:52:00,36.0,32.0,30.30,ESE,114,0.0,0.0,85,0.00,,,0.08,,2013-01-27 02:52:00,
2013-01-26 22:02:00,35.0,31.0,30.30,ESE,114,0.0,0.0,86,0.00,,,0.08,,2013-01-27 03:02:00,
2013-01-26 22:11:00,35.0,31.0,30.30,ESE,114,0.0,0.0,86,0.00,,,0.08,,2013-01-27 03:11:00,
2013-01-26 22:21:00,35.0,32.0,30.31,ESE,114,0.0,0.0,87,0.00,,,0.08,,2013-01-27 03:21:00,
2013-01-26 22:32:00,35.0,32.0,30.32,ESE,114,0.0,0.0,88,0.00,,,0.08,,2013-01-27 03:32:00,
2013-01-26 22:42:00,35.0,32.0,30.32,ESE,114,0.0,0.0,88,0.00,,,0.08,,2013-01-27 03:42:00,
2013-01-26 22:52:00,34.0,31.0,30.32,ESE,114,0.0,0.0,88,0.00,,,0.08,,2013-01-27 03:52:00,
2013-01-26 23:02:00,34.0,31.0,30.33,ESE,114,0.0,0.0,89,0.00,,,0.08,,2013-01-27 04:02:00,
2013-01-26 23:12:00,34.0,31.0,30.33,ESE,114,0.0,0.0,89,0.00,,,0.08,,2013-01-27 04:12:00,
2013-01-26 23:22:00,33.0,30.0,30.33,ESE,114,0.0,0.0,89,0.00,,,0.08,,2013-01-27 04:22:00,
2013-01-26 23:32:00,34.0,31.0,30.34,ESE,114,0.0,1.0,89,0.00,,,0.08,,2013-01-27 04:32:00,
2013-01-26 23:42:00,34.0,31.0,30.34,ESE,114,0.0,1.0,89,0.00,,,0.08,,2013-01-27 04:42:00,
2013-01-26 23:52:00,38.0,33.0,30.34,ESE,110,0.0,3.0,81,0.00,,,0.08,,2013-01-27 04:52:00,